Location: Burbank
(38.7788°N, 114.0429°W)
Time: 11:37:42
(UTC+00:00)

Vanguard 2 - Pass Details

Date: 17 May 2026
Orbit: 553 x 2894 km, 32.9° (Epoch: 11 June)

Event Time Altitude Azimuth Distance (km) Brightness Sun altitude
Rises 15:00:40 0° 281° (W) 6,516 11.7 28.9°
Reaches altitude 10° 15:06:01 10° 273° (W) 5,250 11.3 30.0°
Maximum altitude 15:17:46 30° 220° (SW) 3,071 10.5 32.3°
Drops below altitude 10° 15:26:00 10° 163° (SSE) 3,618 11.3 33.9°
Sets 15:28:57 0° 152° (SSE) 4,282 11.7 34.5°
